Dewpoint
58 58 58 58 58 57 57 57 57 57 57 58 58 58 59 60 61 51 35 50 61 77 76 66 67 65 63 60 61 58 55 48 47 46 48 50 50 51 51 51 53 55 57 55 53
58 58 58 57 57 57 57 57 57 57 57 57 58 58 59 61 49 36 61 77 75 77 69 64 61 61 57 58 57 56 49 46 47 50 48 50 50 50 51 49 52 55 56 52 53
58 57 57 57 57 57 57 56 57 57 57 57 57 58 59 59 44 37 73 77 77 76 64 62 58 58 55 53 50 50 46 47 48 49 50 51 50 49 48 46 51 52 52 52 52
59 58 58 56 56 56 56 56 56 57 57 57 57 58 60 54 41 44 73 77 77 70 63 59 56 55 50 53 50 50 51 50 50 51 52 51 49 48 48 46 51 52 52 55 55
59 58 57 56 56 56 56 56 56 56 56 57 57 59 55 40 45 53 75 76 68 67 60 56 54 53 48 46 49 50 51 52 51 51 52 51 50 50 50 47 49 51 52 53 54
59 59 58 57 56 56 56 57 56 56 56 57 58 59 48 32 51 52 61 65 64 63 57 55 53 52 47 45 45 48 52 51 52 52 53 52 52 51 51 47 48 50 51 52 53
59 59 57 57 56 55 56 56 56 56 56 57 59 55 40 32 52 54 62 63 62 61 56 55 55 53 50 46 48 48 52 52 52 52 52 54 53 50 51 48 49 50 52 53 53
59 58 57 56 56 55 55 55 55 56 57 58 60 53 31 36 53 51 58 59 61 61 59 57 55 53 48 51 49 46 49 48 52 53 52 60 53 53 51 49 49 50 53 54 54
58 57 56 55 54 54 54 54 55 57 59 60 55 47 29 58 53 53 54 55 57 58 57 56 53 48 45 53 51 43 39 45 47 52 49 56 52 53 51 49 50 51 51 53 54
58 57 55 54 54 53 54 55 58 58 58 54 46 27 31 31 49 53 53 52 53 53 53 50 45 43 42 41 36 40 44 39 44 49 49 47 51 53 50 49 49 52 53 53 52
58 57 55 54 53 53 53 52 46 44 37 23 16 15 19 32 51 50 51 50 50 44 42 39 40 48 41 34 32 33 34 37 44 48 47 47 51 52 51 46 47 49 50 52 52
57 56 55 53 53 53 52 44 38 34 20 20 17 25 26 37 45 45 47 46 43 38 39 37 38 36 34 34 30 28 31 38 44 45 46 47 49 53 52 48 47 48 49 50 51
57 56 55 52 52 51 44 37 38 36 27 19 20 18 24 32 32 41 42 40 36 35 34 37 52 36 34 32 27 26 32 38 41 46 44 46 48 52 52 51 49 48 48 49 51
57 56 54 52 48 39 37 39 38 38 27 19 18 18 23 23 27 39 40 37 35 34 35 35 38 34 33 28 24 33 31 34 43 43 45 48 48 51 51 52 50 48 48 48 50
56 56 55 52 50 39 38 38 37 37 20 14 14 22 19 15 22 34 39 35 34 32 34 32 33 32 29 28 26 33 34 36 42 42 36 38 45 48 50 50 52 50 49 49 50
55 54 54 50 48 42 39 39 36 31 18 14 19 16 19 17 21 27 33 37 35 31 31 33 32 32 31 27 31 34 37 38 39 39 42 28 44 48 46 48 51 52 51 51 50
53 53 53 48 41 41 39 38 34 26 15 15 14 15 15 16 20 26 29 32 29 26 29 31 30 30 31 28 34 36 33 42 38 32 28 25 35 39 43 45 48 51 52 53 52
52 52 51 46 43 41 39 38 34 21 20 14 14 14 14 14 21 23 23 21 22 19 21 27 25 27 29 29 29 30 29 42 26 20 27 33 29 41 43 46 50 49 51 53 53
53 52 49 46 44 42 39 35 27 22 14 14 14 14 15 14 19 24 23 20 19 19 21 25 26 28 28 26 24 25 24 23 17 25 32 34 43 43 46 45 48 48 52 53 52
54 48 43 43 44 43 38 29 24 21 14 14 15 15 15 14 14 16 21 22 21 20 23 25 41 42 26 23 21 23 23 18 17 34 24 30 38 41 48 50 51 48 51 52 54
52 47 44 43 43 42 35 28 23 23 26 26 17 15 14 14 14 13 17 16 17 18 23 26 24 23 20 17 18 19 19 18 20 26 22 32 39 47 52 53 53 52 53 54 56
50 42 46 44 42 34 30 30 36 31 33 32 31 28 19 16 16 16 16 20 17 20 21 27 20 23 16 17 18 17 16 14 14 23 22 24 40 48 52 52 54 55 56 58 57
49 42 44 44 43 31 31 28 30 29 31 32 33 32 30 23 22 20 25 30 26 22 24 22 20 21 19 15 15 14 16 12 10 15 27 30 42 48 53 55 56 58 62 64 64
50 39 38 39 38 32 31 30 29 30 30 32 32 32 29 27 28 28 27 28 25 26 55 39 20 28 29 32 29 20 17 20 15 32 34 37 36 48 52 56 57 56 56 58 61
49 42 47 35 32 31 30 31 28 30 31 32 34 31 32 28 26 26 27 28 29 41 33 25 22 38 37 27 22 20 21 19 24 34 39 46 44 48 48 52 51 54 55 55 56
48 49 49 43 39 36 34 34 31 30 29 30 30 29 32 33 35 30 30 28 28 30 29 22 26 28 25 19 18 19 20 23 23 24 25 47 51 45 49 50 52 53 52 53 55
51 51 51 42 35 34 33 35 33 33 32 31 30 29 30 36 36 35 32 30 30 31 26 22 22 26 24 27 24 21 22 25 27 29 27 35 45 51 49 49 52 53 53 54 56
Lifted_Index
14 15 15 15 16 16 16 16 16 16 16 16 16 15 15 14 12 9 7 5 1 -2 -4 -4 -5 -5 -4 -4 -4 -4 -4 -3 -2 -2 -2 -2 -1 -1 -1 -1 -2 -2 -2 -1 1
14 14 15 15 16 16 16 16 16 16 16 16 15 15 14 13 10 8 6 3 -0 -3 -4 -4 -4 -4 -4 -4 -4 -4 -3 -2 -2 -2 -2 -2 -2 -1 -1 -1 -1 -2 -1 0 1
14 14 14 15 15 15 16 16 16 16 16 16 15 15 14 11 8 6 4 1 -2 -3 -4 -3 -3 -3 -3 -3 -3 -3 -3 -2 -2 -2 -2 -2 -2 -1 -1 -0 -0 -0 -0 0 1
13 13 14 14 14 15 15 16 16 16 16 16 15 14 12 9 6 4 2 -1 -3 -4 -4 -3 -3 -3 -3 -2 -2 -3 -3 -2 -2 -2 -2 -2 -2 -1 -1 -0 0 0 0 0 0
12 12 13 13 14 14 15 15 15 15 15 15 15 13 10 7 5 3 0 -2 -4 -4 -4 -3 -3 -3 -2 -2 -2 -3 -3 -3 -3 -3 -3 -2 -2 -1 -1 -0 0 1 0 -0 -0
13 12 12 12 13 13 14 15 15 15 15 15 14 12 8 6 4 3 -0 -3 -4 -4 -4 -3 -3 -3 -2 -1 -1 -2 -3 -3 -3 -3 -3 -3 -2 -2 -1 -0 0 0 0 -0 -1
13 13 12 12 12 13 14 14 15 15 14 14 12 10 7 6 4 2 -1 -3 -4 -4 -4 -4 -3 -3 -2 -1 -1 -2 -3 -4 -4 -3 -3 -3 -3 -2 -1 -1 -1 -1 -1 -2 -2
13 13 13 12 12 13 14 14 14 14 14 12 10 8 7 5 3 1 -1 -3 -4 -5 -4 -4 -3 -2 -2 -1 -2 -2 -3 -4 -4 -3 -3 -3 -3 -2 -1 -1 -2 -2 -2 -3 -3
12 12 12 12 12 13 13 13 13 13 12 10 8 7 6 5 3 1 -0 -2 -3 -4 -4 -3 -2 -1 -1 -1 -1 -2 -2 -3 -3 -3 -3 -3 -3 -2 -1 -1 -2 -3 -3 -3 -3
11 12 12 12 12 12 12 11 10 10 9 8 7 7 7 5 2 1 0 -1 -2 -3 -3 -2 -1 -1 -1 -1 -1 -1 -2 -2 -3 -3 -2 -2 -3 -2 -1 -1 -2 -3 -3 -3 -3
11 12 12 12 12 11 9 7 6 7 7 7 7 7 7 5 2 1 0 -0 -1 -2 -1 -1 -1 -1 -1 -0 -0 -1 -1 -2 -3 -3 -3 -3 -3 -3 -2 -1 -1 -2 -2 -2 -2
11 12 12 12 11 10 7 5 4 5 6 7 7 6 6 4 2 1 1 1 -0 -1 -1 -1 -1 -0 -0 0 -0 -1 -1 -2 -2 -2 -3 -3 -3 -3 -2 -1 -1 -1 -1 -2 -2
11 11 11 11 9 8 6 5 4 4 5 6 6 6 6 5 3 2 1 1 0 -0 -1 -1 -1 -0 -0 -0 -1 -1 -1 -1 -2 -2 -2 -2 -3 -3 -3 -2 -1 -1 -1 -1 -1
10 10 10 9 7 6 5 5 4 4 3 4 5 5 5 5 3 2 1 1 1 -0 -1 -1 -1 -0 -0 0 -0 -0 -0 -1 -1 -2 -2 -1 -2 -3 -3 -3 -2 -2 -1 -1 -1
9 9 8 7 6 5 4 4 4 3 2 3 4 5 4 4 3 2 2 2 1 0 -0 -0 -0 -0 0 1 1 1 0 0 -1 -1 -1 -1 -2 -3 -3 -3 -3 -2 -2 -2 -2
8 7 7 6 5 4 4 4 3 2 1 2 3 4 3 3 2 2 2 2 2 1 1 0 0 0 1 1 1 1 0 -0 -0 -1 -1 -1 -2 -3 -3 -3 -3 -3 -3 -2 -2
7 6 6 5 4 3 3 2 1 0 1 1 2 2 2 1 2 2 2 2 2 1 1 0 0 1 1 1 1 0 -0 -0 -1 -1 -1 -1 -1 -2 -2 -2 -2 -3 -3 -3 -3
5 5 4 4 3 3 2 1 -0 -0 -0 0 0 0 0 -0 0 1 2 2 1 1 0 -0 -0 0 0 0 0 -0 -1 -1 -1 -1 -1 -1 -1 -1 -1 -2 -2 -3 -3 -3 -3
3 3 2 2 3 3 1 0 -0 -0 -0 -0 -0 -1 -1 -1 -0 -0 0 0 0 0 -0 -1 -1 -0 -0 0 0 -0 -1 -1 -1 -1 -1 -1 -1 -1 -2 -2 -2 -3 -3 -3 -4
1 0 0 1 2 1 0 0 0 0 -0 -0 -1 -1 -1 -1 -1 -1 -0 -0 -0 0 -0 -0 -1 -0 -0 0 0 0 -0 -1 -1 -1 -1 -1 -1 -2 -2 -3 -3 -3 -3 -4 -4
-0 -1 -1 0 1 0 -0 -0 0 0 -0 -1 -1 -1 -1 -1 -1 -1 -1 -1 -0 0 0 -0 -1 -1 -0 -0 -0 -0 -0 -1 -1 -1 -1 -1 -1 -2 -3 -3 -3 -3 -4 -5 -5
-1 -2 -1 -0 -0 -1 -1 -1 -0 -0 -1 -1 -1 -1 -1 -1 -1 -1 -1 -0 0 0 0 0 -1 -1 -1 -1 -1 -1 -1 -1 -1 -1 -1 -1 -2 -3 -4 -4 -4 -5 -5 -5 -5
-2 -2 -1 -1 -1 -1 -1 -1 -1 -1 -1 -1 -1 -1 -1 -0 -1 -1 -0 0 1 1 0 0 -0 -1 -1 -1 -1 -1 -1 -1 -1 -1 -1 -1 -1 -2 -4 -5 -5 -5 -6 -6 -6
-2 -2 -2 -1 -1 -1 -1 -1 -1 -0 -0 -1 -1 -1 -1 -0 -0 -0 -0 0 1 1 1 0 -0 -0 -0 -0 -1 -1 -1 -1 -1 -0 -0 -0 -1 -2 -4 -5 -5 -5 -5 -5 -6
-1 -2 -2 -2 -1 -1 -1 -1 -1 -1 -0 -0 -1 -0 -0 -0 -0 -0 -0 0 0 0 0 0 -0 -0 -0 -0 -1 -1 -1 -1 -1 -0 0 -0 -1 -3 -4 -4 -4 -4 -4 -4 -4
-0 -1 -1 -1 -1 -1 -1 -1 -1 -0 0 0 0 0 -0 -1 -0 -0 -0 -0 -0 -0 -0 -0 -1 -1 -1 -1 -1 -1 -1 -1 -1 -0 -0 -1 -1 -3 -4 -3 -3 -3 -3 -3 -3
1 0 -1 -1 -1 -1 -1 -2 -1 0 1 1 1 1 0 -0 -0 -0 -0 -0 -0 -0 -0 -1 -1 -1 -1 -1 -1 -1 -1 -1 -1 -1 -1 -1 -2 -3 -4 -3 -3 -3 -3 -3 -3